Zurück zum Katalog

THORAD AGENA D DEB

AktivLEO
NORAD 22533·DEBRIS·🇺🇸 United States

Gestartet Apr 8, 1970 von Vandenberg Space Force Base

Loading…

Nächste Überflüge (nächste 24 Stunden)

TLE

AktuellSource: Space-Track

Epoche: Sep 14, 2026, 00:11 UTC

1 22533U 70025QP  26257.00810081  .00000896  00000-0  10330-2 0  9991
2 22533 100.1039  86.0135 0004872  24.9223 128.7704 13.72450548665495

Verfolge THORAD AGENA D DEB in Echtzeit mit AllMySat

Download on the App Store